Regional Weather Roundup
Issued by NWS

Home | Current Version | Previous Version | Graphics & Text | Print | Product List | Glossary On
Versions: 1 2 3 4 5 6 7 8 9 10 11 12 13 14 15 16 17 18 19 20 21 22 23 24 25 26 27 28 29 30 31 32 33 34 35 36 37 38 39 40 41 42 43 44 45 46 47 48 49 50
000
ASUS43 KDMX 221001
RWRIA

WEATHER ROUNDUP FOR IOWA
NATIONAL WEATHER SERVICE DES MOINES IA
500 AM CDT FRI SEP 22 2017

NOTE: "FAIR" INDICATES FEW OR NO CLOUDS BELOW 12,000 FEET WITH NO
SIGNIFICANT WEATHER AND/OR OBSTRUCTIONS TO VISIBILITY.

* - THESE STATIONS ARE NOT NWS STATIONS...THUS NOT UNDER NWS
QUALITY CONTROL.  THEY ALSO DO NOT REPORT WEATHER SUCH
AS PRECIPITATION OR FOG.

IAZ001>003-012>014-020>022-031>034-043>046-221100-
   NORTHWEST IOWA

CITY           SKY/WX    TMP DP  RH WIND       PRES   REMARKS
CARROLL *      CLEAR     77  72  83 S15G25    29.86R
CHEROKEE *     CLEAR     75  73  91 S14       29.81S
DENISON *      CLEAR     77  72  83 S14G24    29.86R
LE MARS *      CLEAR     77  72  83 S16       29.76S
ORANGE CITY *  CLEAR     75  73  94 S14G20    29.78S
SHELDON *      CLEAR     75  72  88 S13       29.77R
SIOUX CITY     CLEAR     76  73  91 SE9       29.77S
SPENCER        PTCLDY    76  71  85 S15       29.81S
STORM LAKE *   CLEAR     75  72  88 S15G24    29.83S
$$

IAZ055>058-069>071-079>083-090>094-221100-
   SOUTHWEST IOWA

CITY           SKY/WX    TMP DP  RH WIND       PRES   REMARKS
ATLANTIC *     CLEAR     77  72  83 S12       29.88R
AUDUBON *      CLEAR     75  72  88 S10       29.89S
CLARINDA *     CLEAR     75  72  88 S6        29.91R
COUNCIL BLFS * CLEAR     75  75 100 S13G21    29.85R
CRESTON *      CLEAR     75  70  83 S13G20    29.93R
HARLAN  *      PTCLDY    77  72  83 S13G20    29.89R
LAMONI         CLEAR     74  70  87 S8        29.94R
RED OAK *      PTCLDY    79  70  73 S16       29.87S HX  81
SHENANDOAH *   CLEAR     77  70  78 S12G18    29.87S
$$

IAZ047>049-059>061-072>074-084-221100-
   CENTRAL IOWA

CITY           SKY/WX    TMP DP  RH WIND       PRES   REMARKS
AMES           CLEAR     71  70  96 S6        29.90R
ANKENY *       CLEAR     75  70  83 S5        29.91R
BOONE *        CLEAR     77  70  78 S6G13     29.89R
CHARITON *     CLEAR     73  70  88 S10       29.94R
DES MOINES     PTCLDY    78  70  76 S8        29.90R HX  80
GRINNELL*      CLEAR     73  68  85 S8        29.96R
KNOXVILLE *    MOCLDY    73  68  83 SE8       29.93R
MARSHALLTOWN   CLEAR     73  70  90 SE9       29.92R
NEWTON *       CLEAR     72  68  88 SE9       29.94R
PELLA *        CLEAR     73  67  80 SE7       29.95R
PERRY *          N/A     77  72  85 S9        29.88S
$$

IAZ004>006-015-016-023>025-035-036-221100-
   NORTH CENTRAL IOWA

CITY           SKY/WX    TMP DP  RH WIND       PRES   REMARKS
ALGONA *       PTCLDY    75  73  94 S13       29.85S
CLARION *      PTCLDY    73  72  94 S12       29.88S
ESTHERVILLE    CLOUDY    72  71  97 S12       29.82R
FORT DODGE *   CLEAR     77  71  82 S14       29.87S
MASON CITY     CLEAR     71  68  90 S9        29.90S
FOREST CITY *    N/A     72  70  94 S7        29.88R
WEBSTER CITY * CLEAR     73  70  88 S8        29.87R
IOWA FALLS *     N/A     71  68  90 SE8       29.92R
$$

IAZ007>011-017>019-026>030-037>042-050>054-066-221100-
   NORTHEAST IOWA

CITY           SKY/WX    TMP DP  RH WIND       PRES   REMARKS
CEDAR RAPIDS   CLEAR     73  69  87 S8        29.97S
CHARLES CITY * PTCLDY    73  72  94 S12       29.92S
CLINTON *      CLEAR    N/A N/A N/A S6        30.02R
DECORAH *      CLEAR     73  70  88 S9        29.94R
DUBUQUE        CLEAR     71  67  87 S10       30.00S
MONTICELLO *   CLEAR     70  68  94 S7        29.98S
OELWEIN *      PTCLDY    75  70  83 S13       29.96S
WATERLOO       CLEAR     72  69  90 S12       29.92R
$$

IAZ064-065-067-068-078-221100-
   EAST CENTRAL IOWA

CITY           SKY/WX    TMP DP  RH WIND       PRES   REMARKS
DAVENPORT      CLEAR     73  68  84 S8        30.03R
IOWA CITY      CLEAR     73  68  84 SE3       29.99R
MUSCATINE *    CLEAR     66  64  94 CALM      30.00R
QUAD CITIES    CLEAR     73  67  81 S5        30.00R
$$

IAZ062-063-075>077-085>089-095>099-221100-
   SOUTHEAST IOWA

CITY           SKY/WX    TMP DP  RH WIND       PRES   REMARKS
BURLINGTON     CLEAR     73  69  87 S7        30.00R
FAIRFIELD *    CLEAR     73  68  83 S8        29.98R
FORT MADISON * CLEAR     72  68  88 S3        30.02R
KEOKUK *       CLEAR     77  68  73 S9        30.00R
OSKALOOSA *      N/A     72  68  88 S8        29.97S
OTTUMWA        CLEAR     74  69  85 S10       29.96R
WASHINGTON *   CLEAR     73  70  88 S7        30.00R
$$

ABBREVIATIONS USED IN REMARKS
   TC - TEMPERATURES IN CELSIUS
  WCI - WIND CHILL INDEX
   HX - HEAT INDEX
  VSB - VISIBILITY
$$





USA.gov is the U.S. government's official web portal to all federal, state and local government web resources and services.